Newark, NJ

4:23 AM EDT on October 22, 2019 (GMT -0400)
Newark International

Weather History for KEWR - May, 2019

Change the Weather History Date:

Tuesday, May 28, 2019

  Actual Average Record
Temperature  
Mean Temperature 69 °F -  
Max Temperature 75 °F - 96 °F (2016)
Min Temperature 63 °F - 42 °F (1961)
Cooling Degree Days 4    
Growing Degree Days 19 (Base 50)    
Moisture  
Dew Point 61 °F    
Average Humidity 78    
Maximum Humidity 93    
Minimum Humidity 55    
Precipitation  
Precipitation 0.77 in - 1.37 in (1984)
Sea Level Pressure  
Sea Level Pressure 29.78 in    
Wind  
Wind Speed 5 mph ()    
Max Wind Speed 9 mph    
Max Gust Speed 20 mph    
Visibility 9.2 miles    
Events Rain , Thunderstorm    
T = Trace of Precipitation, MM = Missing Value Source: Averaged Metar Reports

Daily Weather History Graph

Daily Weather History Graph

Search for Another Location

Airport or City:

Astronomy

May. 28, 2019 Rise Set
Actual Time 5:29 AM EDT 8:18 PM EDT
Civil Twilight 4:57 AM EDT 8:50 PM EDT
Nautical Twilight 4:17 AM EDT 9:31 PM EDT
Astronomical Twilight 3:30 AM EDT 10:18 PM EDT
Moon 2:43 AM EDT (5/28) 2:23 PM EDT (5/28)
Length of Visible Light 15h 53m
Length of Day
14h 48m
Waning Crescent, 32% of the Moon is Illuminated
May 28
Waning Crescent
Jun 3
New
Jun 10
First Quarter
Jun 17
Full
Jun 25
Last Quarter

Hourly Weather History & Observations

Time (EDT) Temp. Dew Point Humidity Pressure Visibility Wind Dir Wind Speed Gust Speed Precip Events Conditions
12:51 AM 69.1 °F 53.1 °F 57% 29.90 in 10.0 mi WSW 8.1 mph - N/A   Mostly Cloudy
1:51 AM 68.0 °F 54.0 °F 61% 29.90 in 10.0 mi West 4.6 mph - N/A   Mostly Cloudy
2:51 AM 66.9 °F 54.0 °F 63% 29.89 in 10.0 mi Calm Calm - N/A   Mostly Cloudy
3:51 AM 66.0 °F 54.0 °F 65% 29.89 in 10.0 mi SW 3.5 mph - N/A   Mostly Cloudy
4:51 AM 68.0 °F 53.1 °F 59% 29.89 in 10.0 mi North 3.5 mph - N/A   Mostly Cloudy
5:51 AM 68.0 °F 51.1 °F 55% 29.90 in 10.0 mi NE 8.1 mph - N/A   Mostly Cloudy
6:51 AM 68.0 °F 52.0 °F 56% 29.91 in 10.0 mi NE 6.9 mph - N/A   Mostly Cloudy
7:51 AM 68.0 °F 52.0 °F 56% 29.90 in 10.0 mi ENE 8.1 mph - N/A   Mostly Cloudy
8:51 AM 66.9 °F 53.1 °F 61% 29.88 in 10.0 mi ENE 6.9 mph - N/A   Mostly Cloudy
9:51 AM 66.9 °F 55.0 °F 66% 29.88 in 10.0 mi SE 8.1 mph - 0.00 in Rain Light Rain
10:51 AM 64.0 °F 57.9 °F 80% 29.90 in 5.0 mi SSE 6.9 mph - 0.03 in Rain Rain
11:51 AM 63.0 °F 61.0 °F 93% 29.86 in 7.0 mi ESE 8.1 mph - 0.07 in Rain Light Rain
12:24 PM 64.0 °F 62.1 °F 93% 29.82 in 10.0 mi ESE 6.9 mph - 0.00 in   Overcast
12:51 PM 64.0 °F 62.1 °F 93% 29.79 in 10.0 mi SE 8.1 mph - 0.00 in   Overcast
1:19 PM 64.9 °F 61.0 °F 87% 29.79 in 10.0 mi SSE 9.2 mph - N/A   Overcast
1:51 PM 66.0 °F 61.0 °F 84% 29.77 in 10.0 mi SSE 8.1 mph - N/A   Overcast
2:20 PM 66.0 °F 62.1 °F 87% 29.76 in 9.0 mi SSE 5.8 mph - 0.01 in Rain Light Rain
2:51 PM 66.9 °F 63.0 °F 87% 29.75 in 8.0 mi ESE 6.9 mph - 0.01 in Rain Light Rain
3:48 PM 66.2 °F 62.6 °F 88% 29.73 in 10.0 mi East 4.6 mph - 0.00 in   Overcast
3:51 PM 66.9 °F 63.0 °F 87% 29.73 in 10.0 mi East 4.6 mph - 0.00 in Rain Light Rain
4:51 PM 71.1 °F 64.9 °F 81% 29.68 in 10.0 mi Calm Calm - 0.00 in   Mostly Cloudy
5:51 PM 71.1 °F 64.0 °F 78% 29.68 in 10.0 mi NE 5.8 mph - N/A   Mostly Cloudy
6:51 PM 71.1 °F 64.0 °F 78% 29.65 in 10.0 mi ENE 3.5 mph - N/A   Overcast
7:51 PM 72.0 °F 64.0 °F 76% 29.66 in 10.0 mi Calm Calm - N/A   Overcast
8:49 PM 75.2 °F 68.0 °F 78% 29.67 in 10.0 mi NW 5.8 mph - 0.00 in Rain , Thunderstorm Light Thunderstorms and Rain
8:51 PM 75.0 °F 68.0 °F 79% 29.68 in 10.0 mi North 4.6 mph - 0.00 in Rain , Thunderstorm Light Thunderstorms and Rain
9:21 PM 72.0 °F 66.9 °F 84% 29.66 in 3.0 mi NE 5.8 mph - 0.01 in Rain , Thunderstorm Heavy Thunderstorms and Rain
9:51 PM 71.1 °F 69.1 °F 93% 29.68 in 4.0 mi WSW 6.9 mph - 0.19 in Rain , Thunderstorm Heavy Thunderstorms and Rain
10:11 PM 70.0 °F 66.0 °F 87% 29.69 in 8.0 mi Variable 5.8 mph 19.6 mph 0.32 in Rain , Thunderstorm Light Thunderstorms and Rain
10:42 PM 71.1 °F 68.0 °F 90% 29.68 in 10.0 mi WSW 6.9 mph - 0.47 in   Overcast
10:51 PM 70.0 °F 66.9 °F 90% 29.68 in 10.0 mi SSW 3.5 mph - 0.47 in   Overcast
11:51 PM 71.1 °F 69.1 °F 93% 29.68 in 10.0 mi South 3.5 mph - N/A   Overcast